Weather History for Laramie, WY

Change the Weather History Date:

Saturday, November 17, 2012

  Actual Average Record
Temperature  
Mean Temperature 42 °F 28 °F  
Max Temperature 53 °F 40 °F 67 °F (1999)
Min Temperature 31 °F 17 °F -16 °F (1980)
Degree Days  
Heating Degree Days 23 36  
Month to date heating degree days 467 556  
Since 1 July heating degree days 1532 1799  
Cooling Degree Days 0 0  
Month to date cooling degree days 0 0  
Year to date cooling degree days 211 67  
Moisture  
Dew Point 29 °F    
Average Humidity 63    
Maximum Humidity 85    
Minimum Humidity 41    
Precipitation  
Precipitation T in 0.02 in 0.39 in (1952)
Month to date precipitation 0.16 0.34  
Year to date precipitation 6.06 10.40  
Sea Level Pressure  
Sea Level Pressure 30.00 in    
Wind  
Wind Speed 13 mph (WSW)    
Max Wind Speed 29 mph    
Max Gust Speed 33 mph    
Visibility 10 miles    
Events      
T = Trace of Precipitation, MM = Missing Value Source: NWS Daily Summary

Daily Weather History Graph

Daily Weather History Graph

Search for Another Location

Airport:

Trip Planner

Search our weather history database for the weather conditions in past years. The results will help you decide how hot, cold, wet, or windy it might be!

Date:

Astronomy

Nov. 17, 2012 Rise Set
Actual Time 6:53 AM MST 4:41 PM MST
Civil Twilight 6:24 AM MST 5:11 PM MST
Nautical Twilight 5:50 AM MST 5:44 PM MST
Astronomical Twilight 5:17 AM MST 6:17 PM MST
Moon 10:40 AM MST (11/17) 8:54 PM MST (11/17)
Length of Visible Light 10h 46m
Length of Day
9h 47m
Waxing Crescent, 21% of the Moon is Illuminated
Nov 17
Waxing Crescent
Nov 20
First Quarter
Nov 28
Full
Dec 6
Last Quarter
Dec 13
New

Hourly Weather History & Observations

Time (MST) Temp. Windchill Dew Point Humidity Pressure Visibility Wind Dir Wind Speed Gust Speed Precip Events Conditions
12:53 AM 37.0 °F 26.7 °F 30.0 °F 76% 29.94 in 10.0 mi WSW 19.6 mph 25.3 mph N/A   Partly Cloudy
1:53 AM 37.9 °F 32.1 °F 28.0 °F 68% 29.96 in 10.0 mi West 8.1 mph - N/A   Clear
2:53 AM 36.0 °F 27.1 °F 27.0 °F 70% 29.98 in 10.0 mi WSW 13.8 mph - N/A   Clear
3:53 AM 34.0 °F 23.0 °F 27.0 °F 75% 29.99 in 10.0 mi WSW 18.4 mph - N/A   Clear
4:53 AM 34.0 °F 25.0 °F 27.0 °F 75% 30.02 in 10.0 mi WSW 12.7 mph - N/A   Clear
5:53 AM 35.1 °F 25.2 °F 28.0 °F 76% 30.05 in 10.0 mi WSW 16.1 mph - N/A   Clear
6:53 AM 30.9 °F 24.3 °F 26.1 °F 82% 30.07 in 10.0 mi East 6.9 mph - N/A   Clear
7:53 AM 39.0 °F 30.3 °F 30.0 °F 70% 30.04 in 10.0 mi WSW 16.1 mph - N/A   Clear
8:53 AM 45.0 °F 36.9 °F 30.0 °F 56% 30.02 in 10.0 mi WSW 20.7 mph - N/A   Clear
9:53 AM 45.0 °F 37.1 °F 28.9 °F 53% 30.02 in 10.0 mi WSW 19.6 mph - N/A   Clear
10:53 AM 48.9 °F - 28.9 °F 46% 30.01 in 10.0 mi SW 24.2 mph - N/A   Clear
11:53 AM 52.0 °F - 28.9 °F 41% 29.95 in 10.0 mi WSW 23.0 mph 29.9 mph N/A   Clear
12:53 PM 48.9 °F - 27.0 °F 43% 29.96 in 10.0 mi WSW 19.6 mph 27.6 mph N/A   Scattered Clouds
1:53 PM 46.9 °F - 30.0 °F 52% 29.97 in 10.0 mi SW 10.4 mph - 0.00 in   Overcast
2:53 PM 46.9 °F - 28.9 °F 50% 29.99 in 10.0 mi WSW 15.0 mph 20.7 mph 0.00 in   Overcast
3:53 PM 46.0 °F 41.4 °F 28.9 °F 51% 30.01 in 10.0 mi SW 9.2 mph - 0.00 in   Overcast
4:53 PM 41.0 °F 36.4 °F 30.0 °F 65% 30.04 in 10.0 mi WSW 6.9 mph - 0.00 in   Overcast
5:53 PM 42.1 °F 35.2 °F 30.0 °F 62% 30.02 in 10.0 mi SW 12.7 mph - N/A   Overcast
6:53 PM 39.0 °F 32.3 °F 30.0 °F 70% 30.07 in 10.0 mi WSW 10.4 mph - N/A   Overcast
7:53 PM 39.9 °F 35.8 °F 30.0 °F 68% 30.00 in 10.0 mi Variable 5.8 mph - N/A   Scattered Clouds
8:53 PM 34.0 °F 26.0 °F 28.9 °F 82% 29.99 in 10.0 mi South 10.4 mph - N/A   Partly Cloudy
9:53 PM 36.0 °F 29.0 °F 28.9 °F 76% 29.97 in 10.0 mi South 9.2 mph - N/A   Overcast
10:53 PM 33.1 °F 28.7 °F 27.0 °F 78% 29.96 in 10.0 mi WSW 4.6 mph - N/A   Scattered Clouds
11:53 PM 32.0 °F 28.7 °F 28.0 °F 85% 29.95 in 10.0 mi West 3.5 mph - N/A   Mostly Cloudy